Theta_e
342 343 346 348 349 349 347 349 349 347 345 343 343 344 344 343 344 344 343 342 342 343 345 346 345 343 343 344 343 342 340 338 337 338 338 338 339 340 341 344 346 346
339 340 343 346 348 348 347 347 347 346 345 345 344 344 344 344 344 344 344 343 343 344 345 346 346 343 343 346 345 342 341 340 338 337 337 337 336 337 338 341 345 347
337 337 340 343 345 348 349 348 346 345 345 346 345 345 345 345 345 345 345 344 344 345 345 345 345 344 344 346 345 344 344 344 342 339 338 337 336 336 336 338 343 346
334 335 337 339 342 345 347 348 345 344 344 345 346 345 344 346 347 347 346 346 346 346 346 345 344 344 345 346 345 345 345 345 345 343 340 338 337 336 336 336 339 343
333 334 336 338 339 342 345 346 345 344 343 343 345 345 344 345 347 347 348 348 347 346 346 346 345 344 344 345 344 345 345 344 345 346 343 340 339 338 336 336 337 339
335 335 335 337 338 341 342 342 342 341 341 341 343 344 345 344 344 345 347 348 348 346 346 345 345 344 344 344 343 344 344 343 344 345 344 342 342 341 338 337 338 340
336 336 336 336 339 341 341 340 339 338 338 340 341 343 344 345 344 344 344 346 347 346 344 345 345 345 345 344 343 343 344 344 343 344 344 343 343 343 341 338 338 340
332 334 335 335 337 341 342 341 341 340 339 341 342 342 345 346 345 345 344 345 347 346 343 342 342 343 345 345 345 344 344 344 343 344 345 344 343 343 343 341 339 339
336 333 332 333 333 335 338 339 341 343 343 344 344 344 345 347 347 346 345 345 347 347 345 342 340 340 343 345 346 345 343 343 344 343 343 344 345 345 345 343 342 341
348 342 336 336 336 334 334 335 339 346 348 347 348 348 347 348 348 347 346 345 345 346 346 343 339 338 340 344 346 347 346 344 344 343 342 343 345 347 346 345 343 343
350 350 346 345 345 342 338 335 340 348 352 350 349 350 349 348 349 348 348 346 344 344 344 343 340 338 337 340 344 348 349 347 345 343 343 342 342 344 346 346 344 343
347 350 352 354 354 352 348 344 343 349 352 352 351 350 349 349 350 349 349 347 345 343 343 342 341 340 337 338 341 345 347 347 346 344 343 342 340 340 342 344 343 342
347 346 351 356 357 356 354 351 347 347 348 350 351 350 349 349 348 348 348 348 346 345 344 343 342 340 338 336 338 340 341 341 343 343 342 341 340 340 340 341 341 340
349 347 350 356 357 357 357 356 352 348 346 347 348 349 349 348 347 346 346 347 348 347 346 345 344 343 340 336 335 335 336 336 337 338 339 339 339 339 340 340 340 339
350 350 352 355 355 356 357 357 355 353 350 348 348 348 348 348 348 346 346 346 347 347 347 347 346 345 342 340 336 334 333 334 334 335 336 336 337 338 339 340 340 339
350 351 353 354 354 355 355 355 355 355 352 350 349 348 347 347 348 348 347 346 347 347 348 348 347 345 344 342 341 338 336 334 332 332 333 333 334 335 336 337 338 338
350 351 353 354 354 354 354 354 354 354 352 351 349 348 347 346 346 348 348 347 346 346 346 347 346 346 345 343 342 342 341 340 337 333 331 331 331 332 332 333 335 336
349 350 350 351 353 354 354 353 353 352 352 351 350 348 348 346 345 346 348 348 348 347 345 345 345 345 345 345 343 342 343 343 342 340 337 333 331 330 330 330 331 333
350 350 350 349 350 352 352 351 351 352 353 353 352 350 349 347 346 345 346 347 348 348 347 345 344 344 344 345 345 345 344 344 344 344 343 341 338 335 333 331 331 331
349 350 351 350 351 351 351 352 351 352 352 353 353 351 350 349 348 346 345 344 344 345 346 346 345 345 344 344 345 345 346 345 346 346 346 346 345 343 341 339 338 336
344 347 348 350 350 350 351 351 352 352 352 352 352 351 350 350 349 348 347 345 343 344 344 344 344 346 346 345 344 345 346 347 347 347 348 348 348 347 347 345 345 343
339 341 343 344 346 348 350 350 350 351 351 351 351 351 351 350 350 349 349 348 347 346 345 344 343 346 349 349 347 346 347 348 348 348 348 349 349 349 348 348 348 346
336 337 338 338 339 342 344 346 347 347 348 350 350 351 351 352 351 350 350 350 349 349 348 346 344 346 349 351 351 350 348 348 349 349 350 350 350 350 350 350 349 349
336 335 335 336 335 335 337 337 339 341 343 346 347 348 350 351 352 352 352 352 350 349 349 348 347 347 348 350 351 352 352 351 351 351 350 351 350 350 350 350 350 350
332 331 332 334 334 334 333 332 333 336 338 340 341 344 346 348 350 351 352 353 352 351 351 350 349 348 348 348 349 349 351 350 351 351 350 351 351 351 351 351 350 350
323 323 326 331 334 333 331 331 333 335 336 337 337 338 340 342 345 346 348 349 351 352 353 353 352 351 350 350 350 350 351 351 351 351 352 352 352 352 352 352 352 352
Wind_Speed
20 20 19 17 15 15 15 15 14 12 13 12 11 11 12 12 12 12 12 13 13 13 13 14 14 14 14 13 14 13 12 12 12 12 13 14 14 12 13 13 11 10
22 21 20 19 17 16 15 15 14 13 12 11 11 11 12 13 13 13 13 13 13 13 14 14 14 14 14 14 14 13 13 13 12 13 12 12 13 12 14 15 12 11
23 22 21 20 19 17 17 16 14 13 12 11 11 12 12 13 13 13 14 13 12 12 14 14 13 14 14 14 14 13 13 12 11 12 12 12 13 13 14 14 14 13
24 23 22 21 20 18 18 17 16 15 14 13 13 12 13 13 13 14 14 14 12 12 13 13 13 13 13 13 14 14 13 12 11 11 12 12 13 13 13 13 14 15
25 24 23 22 21 20 19 18 17 16 16 15 14 14 14 13 14 14 15 15 14 13 13 13 13 12 12 13 14 14 14 12 11 12 12 12 12 13 13 13 15 16
24 24 24 23 22 21 20 19 18 17 17 16 15 15 14 13 13 14 14 14 14 14 14 14 13 13 12 13 12 13 13 13 12 13 12 11 11 12 12 13 15 15
24 24 24 24 24 24 22 20 18 17 16 15 16 16 15 14 13 13 14 14 13 14 14 14 15 14 13 13 13 12 12 12 13 14 13 11 10 11 11 12 14 16
23 24 24 24 24 25 24 22 20 18 17 15 15 16 16 14 14 14 14 14 13 13 13 13 14 14 14 13 14 13 12 12 13 14 13 12 11 11 10 11 13 15
21 22 23 23 23 24 24 24 22 20 18 17 16 16 17 15 14 14 14 14 13 13 13 13 14 14 13 14 14 13 13 13 13 14 14 13 13 12 11 11 12 14
20 20 22 22 22 22 22 23 22 20 19 19 17 17 17 17 16 14 13 14 14 14 13 14 15 14 14 14 13 12 12 14 14 13 13 13 13 12 11 12 13 13
21 21 21 21 20 20 21 21 21 21 20 19 19 18 18 18 17 16 15 14 14 14 13 13 14 15 15 14 13 12 12 13 15 15 14 14 14 13 13 13 14 14
21 22 23 23 21 20 20 22 23 24 22 21 20 19 19 19 19 19 18 16 14 13 13 13 13 14 15 14 14 14 13 14 15 16 16 15 15 14 14 14 15 14
22 21 24 26 25 23 21 21 23 25 25 24 22 21 20 20 20 21 21 20 17 15 13 13 13 14 15 15 15 15 16 15 15 16 17 17 16 16 15 15 15 14
24 23 24 25 26 25 23 21 21 23 25 25 24 23 22 21 21 21 22 22 21 18 16 14 13 14 15 16 16 17 17 17 17 17 17 17 17 17 17 17 16 15
24 25 25 24 23 23 24 23 22 22 24 24 23 24 24 24 23 23 23 24 24 22 20 18 17 16 15 15 16 17 18 19 19 18 18 19 19 18 19 19 19 18
20 23 26 26 24 23 24 24 24 24 25 24 24 24 24 24 25 25 24 24 24 25 24 22 21 19 17 16 15 16 17 19 20 21 21 20 21 20 20 20 20 20
18 20 22 24 25 24 24 24 25 26 26 26 25 25 25 24 24 26 26 25 25 25 25 25 25 23 21 19 17 16 16 17 18 21 22 23 23 23 22 22 21 21
14 16 18 20 21 21 22 23 24 25 26 26 26 25 25 25 24 24 26 27 26 26 27 27 25 24 24 22 20 18 17 17 17 17 19 22 23 24 24 24 24 23
10 10 12 14 16 17 17 17 17 20 23 25 27 26 25 25 25 24 25 26 27 28 29 29 27 25 24 24 24 22 20 20 20 19 18 18 19 21 22 23 24 25
9 8 9 10 11 12 13 12 12 15 19 22 26 28 27 26 26 25 25 26 26 27 28 29 29 28 26 24 24 25 24 23 23 23 21 20 19 19 19 20 21 23
7 8 8 8 9 10 11 11 11 13 15 18 21 24 26 27 27 27 27 26 26 26 27 28 28 27 26 25 24 24 25 26 26 26 25 24 23 22 21 21 21 22
8 6 5 4 6 9 11 11 11 11 12 13 15 18 21 23 24 25 27 27 27 27 27 28 27 25 23 23 23 24 25 27 27 27 27 26 25 24 24 24 23 24
11 9 7 6 3 2 5 8 11 12 12 12 12 13 16 18 19 21 23 25 26 27 27 28 28 27 24 22 21 22 24 25 27 28 29 29 28 27 27 27 26 27
9 8 8 9 8 7 4 2 3 7 9 11 12 12 12 14 15 17 18 20 22 24 25 27 29 29 28 26 24 23 23 24 25 27 28 29 30 29 29 30 30 30
6 7 8 8 8 8 8 7 6 5 4 4 7 8 10 11 12 13 13 15 17 19 22 24 26 28 29 30 29 28 28 28 28 29 31 31 31 31 31 32 32 32
5 5 5 6 6 7 8 8 7 7 7 7 6 5 5 7 10 11 11 12 14 17 19 21 23 26 28 29 28 27 27 28 29 31 32 32 32 33 33 34 35 35
Wind_Direction
200 199 197 194 196 200 199 198 198 193 191 193 195 199 201 198 197 199 200 202 204 205 209 211 210 213 218 221 222 222 222 220 214 214 220 220 220 221 214 204 193 183
203 203 202 199 196 198 201 200 198 196 193 192 193 199 202 200 199 199 199 203 205 206 211 213 211 213 219 223 223 224 226 225 219 216 220 222 221 221 218 216 210 197
204 205 205 205 200 197 199 201 201 200 199 197 195 198 199 198 201 201 199 203 206 206 209 211 210 212 217 222 225 228 227 226 224 222 223 224 223 221 218 222 221 211
206 208 209 210 206 201 199 199 201 201 202 203 201 200 198 198 203 203 200 203 205 206 209 210 210 214 218 220 224 230 232 229 228 229 228 225 225 222 218 222 225 222
209 210 212 214 212 208 205 203 202 201 202 204 204 203 202 203 205 203 202 205 206 208 213 214 214 216 219 220 221 226 233 234 229 232 233 228 227 224 220 223 227 227
211 212 213 216 216 214 212 210 208 206 205 206 205 205 207 209 210 209 209 210 210 210 213 217 219 218 220 223 221 223 230 232 229 233 238 236 233 229 223 224 228 229
215 214 215 216 217 218 218 216 214 214 212 209 210 211 211 214 218 219 219 219 219 218 216 218 221 220 220 225 227 226 228 229 228 232 239 240 237 235 228 227 229 231
222 220 219 220 219 218 220 220 219 219 218 214 213 213 214 216 220 223 223 222 225 230 228 225 226 223 219 224 231 232 230 230 228 230 235 238 238 237 233 232 233 233
230 229 226 226 225 223 222 221 218 217 218 217 214 213 213 216 219 225 229 228 230 237 239 236 233 229 224 225 231 235 236 235 234 234 237 238 241 243 240 240 240 239
227 236 235 232 231 229 227 223 218 215 218 219 218 217 217 217 220 226 231 234 236 239 244 242 237 233 228 225 228 236 241 242 242 242 240 239 242 244 242 243 245 247
216 224 232 235 234 232 230 226 220 217 220 224 223 223 223 221 222 226 230 234 235 237 241 240 239 238 234 228 228 236 243 246 248 248 246 244 244 244 241 241 244 248
214 216 221 227 232 233 230 227 222 219 221 225 227 229 228 225 226 229 233 236 236 237 240 241 242 243 240 235 233 236 242 246 246 247 248 248 248 247 244 242 243 247
218 220 221 221 225 229 228 227 224 222 221 222 225 229 231 230 230 232 236 239 241 241 241 243 244 243 243 242 239 238 241 244 244 245 247 248 251 251 250 248 248 249
216 219 220 218 221 224 226 228 225 224 225 225 225 225 228 232 235 236 237 239 242 244 245 247 247 245 245 244 243 243 243 245 246 246 247 249 252 254 255 255 254 253
216 217 216 216 218 219 222 226 227 225 227 229 229 228 227 229 233 237 239 239 241 244 246 248 249 250 250 250 248 247 247 249 250 250 252 253 254 256 257 259 260 259
213 220 219 219 221 220 220 223 225 225 227 229 233 233 232 231 231 234 237 240 242 244 246 248 250 253 256 258 259 257 256 256 256 256 256 257 258 259 260 260 262 263
210 219 219 219 223 228 229 226 224 224 226 228 231 234 236 236 234 234 236 240 242 244 245 246 249 252 256 260 264 266 265 264 263 261 259 258 259 260 261 262 263 265
203 214 216 217 221 229 235 234 229 228 230 231 232 234 236 236 235 234 235 239 243 245 246 247 248 251 253 257 262 265 266 267 268 267 265 262 261 261 262 263 264 265
182 195 202 211 217 225 233 237 235 234 236 237 237 237 237 236 235 233 232 235 241 244 247 250 251 251 251 254 258 261 264 266 267 268 269 269 268 267 267 267 268 268
181 182 180 190 202 215 227 231 229 232 234 236 237 237 238 237 238 238 234 232 235 240 244 250 254 256 254 253 253 255 259 263 266 268 270 271 271 271 271 271 273 273
169 187 195 201 200 208 219 223 227 232 231 231 232 234 236 237 238 239 237 234 235 237 241 246 253 257 258 256 254 252 253 257 261 264 266 268 269 269 270 270 272 274
109 136 168 206 217 218 221 226 235 243 240 235 234 234 235 237 237 236 236 236 237 239 241 244 247 251 254 254 253 250 248 251 255 257 261 264 266 267 268 269 270 272
91 97 95 75 66 203 228 239 246 251 250 245 244 242 240 238 237 236 236 236 236 238 239 241 244 247 249 249 247 245 244 245 249 251 254 258 260 262 264 266 267 268
88 86 83 70 62 68 68 11 284 269 262 255 250 249 248 245 242 239 239 240 239 239 239 241 243 245 246 247 245 243 242 243 245 248 250 252 255 257 259 262 263 265
94 85 80 71 62 62 61 49 37 22 349 302 276 265 258 255 251 247 245 246 245 244 244 244 244 244 245 246 246 245 246 246 247 249 251 253 255 256 257 259 261 263
89 83 79 74 62 49 44 40 38 39 40 34 19 347 302 276 268 264 262 259 255 251 250 248 248 247 246 247 249 250 252 254 255 256 258 260 262 264 264 264 264 265